Time,TemperatureF,DewpointF,PressureIn,WindDirection,WindDirectionDegrees,WindSpeedMPH,WindSpeedGustMPH,Humidity,HourlyPrecipIn,Conditions,Clouds,dailyrainin,SoftwareType,DateUTC
2013-03-25 00:02:00,32.0,29.0,-100.00,ESE,110,13.0,21.0,87,0.00,,,-99.99,,2013-03-25 04:02:00,
2013-03-25 00:12:00,32.0,29.0,-100.00,East,100,15.0,22.0,88,0.00,,,-99.99,,2013-03-25 04:12:00,
2013-03-25 00:22:00,32.0,29.0,-100.00,ESE,115,12.0,19.0,88,0.00,,,-99.99,,2013-03-25 04:22:00,
2013-03-25 00:33:00,31.0,29.0,-100.00,ESE,105,11.0,22.0,89,1.10,,,-99.99,,2013-03-25 04:33:00,
2013-03-25 00:43:00,31.0,29.0,-100.00,East,95,11.0,17.0,90,1.10,,,-99.99,,2013-03-25 04:43:00,
2013-03-25 00:52:00,31.0,29.0,-100.00,ESE,105,8.0,16.0,91,1.69,,,-99.99,,2013-03-25 04:52:00,
2013-03-25 01:03:00,31.0,29.0,-100.00,East,100,10.0,20.0,91,1.10,,,-99.99,,2013-03-25 05:03:00,
2013-03-25 01:12:00,31.0,29.0,-100.00,ESE,105,11.0,17.0,92,2.24,,,-99.99,,2013-03-25 05:12:00,
2013-03-25 01:22:00,31.0,29.0,-100.00,ESE,110,11.0,18.0,92,4.53,,,-99.99,,2013-03-25 05:22:00,
2013-03-25 01:32:00,31.0,29.0,-100.00,ESE,115,13.0,20.0,92,3.39,,,-99.99,,2013-03-25 05:32:00,
2013-03-25 01:42:00,31.0,29.0,-100.00,ESE,110,10.0,19.0,92,1.10,,,-99.99,,2013-03-25 05:42:00,
2013-03-25 01:52:00,31.0,29.0,-100.00,ESE,115,11.0,21.0,92,2.24,,,-99.99,,2013-03-25 05:52:00,
2013-03-25 02:02:00,31.0,29.0,-100.00,ESE,115,11.0,19.0,93,4.53,,,-99.99,,2013-03-25 06:02:00,
2013-03-25 02:12:00,31.0,29.0,-100.00,ESE,110,10.0,19.0,93,7.91,,,-99.99,,2013-03-25 06:12:00,
2013-03-25 02:22:00,31.0,29.0,-100.00,ESE,120,9.0,18.0,93,3.94,,,-99.99,,2013-03-25 06:22:00,
2013-03-25 02:32:00,31.0,29.0,-100.00,ESE,110,12.0,19.0,93,2.83,,,-99.99,,2013-03-25 06:32:00,
2013-03-25 02:42:00,31.0,29.0,-100.00,ESE,120,11.0,17.0,93,2.83,,,-99.99,,2013-03-25 06:42:00,
2013-03-25 02:52:00,31.0,29.0,-100.00,ESE,115,11.0,22.0,93,2.83,,,-99.99,,2013-03-25 06:52:00,
2013-03-25 03:02:00,31.0,29.0,-100.00,ESE,115,10.0,19.0,93,1.69,,,-99.99,,2013-03-25 07:02:00,
2013-03-25 03:12:00,31.0,29.0,-100.00,ESE,120,12.0,22.0,93,2.24,,,-99.99,,2013-03-25 07:12:00,
2013-03-25 03:22:00,31.0,29.0,-100.00,ESE,120,11.0,18.0,93,2.24,,,-99.99,,2013-03-25 07:22:00,
2013-03-25 03:32:00,31.0,29.0,-100.00,ESE,120,10.0,21.0,94,1.10,,,-99.99,,2013-03-25 07:32:00,
2013-03-25 03:42:00,31.0,29.0,-100.00,ESE,120,13.0,19.0,94,1.69,,,-99.99,,2013-03-25 07:42:00,
2013-03-25 03:52:00,31.0,29.0,-100.00,ESE,110,11.0,19.0,94,1.69,,,-99.99,,2013-03-25 07:52:00,
2013-03-25 04:03:00,31.0,29.0,-100.00,ESE,120,9.0,19.0,94,1.10,,,-99.99,,2013-03-25 08:03:00,
2013-03-25 04:12:00,31.0,29.0,-100.00,ESE,120,10.0,20.0,94,0.55,,,-99.99,,2013-03-25 08:12:00,
2013-03-25 04:23:00,31.0,29.0,-100.00,ESE,115,9.0,16.0,94,1.69,,,-99.99,,2013-03-25 08:23:00,
2013-03-25 04:32:00,31.0,29.0,-100.00,ESE,110,11.0,22.0,94,0.55,,,-99.99,,2013-03-25 08:32:00,
2013-03-25 04:43:00,31.0,29.0,-100.00,ESE,120,12.0,19.0,94,0.55,,,-99.99,,2013-03-25 08:43:00,
2013-03-25 04:52:00,31.0,29.0,-100.00,SE,130,13.0,19.0,94,1.10,,,-99.99,,2013-03-25 08:52:00,
2013-03-25 05:02:00,31.0,29.0,-100.00,SE,135,11.0,16.0,94,2.83,,,-99.99,,2013-03-25 09:02:00,
2013-03-25 05:12:00,30.0,29.0,-100.00,SE,135,6.0,14.0,94,1.10,,,-99.99,,2013-03-25 09:12:00,
2013-03-25 05:22:00,30.0,29.0,-100.00,SE,130,10.0,14.0,94,3.94,,,-99.99,,2013-03-25 09:22:00,
2013-03-25 05:33:00,30.0,29.0,-100.00,SE,125,8.0,17.0,94,1.69,,,-99.99,,2013-03-25 09:33:00,
2013-03-25 05:43:00,30.0,29.0,-100.00,ESE,105,9.0,12.0,94,0.00,,,-99.99,,2013-03-25 09:43:00,
2013-03-25 05:52:00,30.0,29.0,-100.00,SSE,155,5.0,15.0,94,1.10,,,-99.99,,2013-03-25 09:52:00,
2013-03-25 06:03:00,30.0,29.0,-100.00,SE,130,8.0,12.0,94,0.55,,,-99.99,,2013-03-25 10:03:00,
2013-03-25 06:12:00,30.0,29.0,-100.00,ESE,120,7.0,11.0,94,0.00,,,-99.99,,2013-03-25 10:12:00,
2013-03-25 06:22:00,30.0,29.0,-100.00,ESE,110,6.0,11.0,94,0.00,,,-99.99,,2013-03-25 10:22:00,
2013-03-25 06:33:00,30.0,29.0,-100.00,WSW,245,1.0,6.0,94,0.00,,,-99.99,,2013-03-25 10:33:00,
2013-03-25 06:42:00,31.0,29.0,-100.00,SE,130,2.0,5.0,94,0.00,,,-99.99,,2013-03-25 10:42:00,
2013-03-25 06:53:00,31.0,29.0,-100.00,SE,125,3.0,6.0,94,0.00,,,-99.99,,2013-03-25 10:53:00,
2013-03-25 07:03:00,31.0,29.0,-100.00,ESE,110,4.0,6.0,94,0.00,,,-99.99,,2013-03-25 11:03:00,
2013-03-25 07:12:00,31.0,29.0,-100.00,SE,130,4.0,6.0,94,0.00,,,-99.99,,2013-03-25 11:12:00,
2013-03-25 07:23:00,31.0,29.0,-100.00,SE,140,6.0,8.0,94,0.00,,,-99.99,,2013-03-25 11:23:00,
2013-03-25 07:32:00,31.0,29.0,-100.00,SE,145,5.0,7.0,94,0.00,,,-99.99,,2013-03-25 11:32:00,
2013-03-25 07:42:00,31.0,29.0,-100.00,SE,135,4.0,8.0,94,0.00,,,-99.99,,2013-03-25 11:42:00,
2013-03-25 07:52:00,31.0,29.0,-100.00,SE,130,4.0,7.0,94,0.00,,,-99.99,,2013-03-25 11:52:00,
2013-03-25 08:03:00,31.0,30.0,-100.00,SE,145,2.0,5.0,94,0.00,,,-99.99,,2013-03-25 12:03:00,
2013-03-25 08:13:00,31.0,30.0,-100.00,ESE,120,3.0,5.0,94,0.00,,,-99.99,,2013-03-25 12:13:00,
2013-03-25 08:23:00,31.0,30.0,-100.00,SE,125,3.0,5.0,94,0.00,,,-99.99,,2013-03-25 12:23:00,
2013-03-25 08:32:00,31.0,30.0,-100.00,SE,140,2.0,6.0,94,0.55,,,-99.99,,2013-03-25 12:32:00,
2013-03-25 08:42:00,31.0,30.0,-100.00,SSE,155,1.0,6.0,94,0.00,,,-99.99,,2013-03-25 12:42:00,
2013-03-25 08:53:00,32.0,30.0,-100.00,South,175,1.0,4.0,94,0.00,,,-99.99,,2013-03-25 12:53:00,
2013-03-25 09:03:00,32.0,30.0,-100.00,SSW,210,1.0,3.0,94,0.00,,,-99.99,,2013-03-25 13:03:00,
2013-03-25 09:13:00,32.0,30.0,-100.00,SSW,205,1.0,4.0,94,0.00,,,-99.99,,2013-03-25 13:13:00,
2013-03-25 09:22:00,32.0,31.0,-100.00,SW,235,4.0,8.0,94,0.55,,,-99.99,,2013-03-25 13:22:00,
2013-03-25 09:32:00,32.0,31.0,-100.00,WSW,240,6.0,9.0,94,0.55,,,-99.99,,2013-03-25 13:32:00,
2013-03-25 09:42:00,32.0,31.0,-100.00,SW,235,6.0,9.0,94,0.55,,,-99.99,,2013-03-25 13:42:00,
2013-03-25 09:52:00,32.0,31.0,-100.00,WSW,240,6.0,12.0,94,0.55,,,-99.99,,2013-03-25 13:52:00,
2013-03-25 10:03:00,32.0,31.0,-100.00,WSW,240,7.0,10.0,94,0.00,,,-99.99,,2013-03-25 14:03:00,
2013-03-25 10:12:00,33.0,31.0,-100.00,WSW,245,6.0,9.0,94,0.00,,,-99.99,,2013-03-25 14:12:00,
2013-03-25 10:23:00,33.0,31.0,-100.00,SW,225,3.0,7.0,94,0.55,,,-99.99,,2013-03-25 14:23:00,
2013-03-25 10:32:00,33.0,31.0,-100.00,WSW,240,4.0,9.0,94,2.24,,,-99.99,,2013-03-25 14:32:00,
2013-03-25 10:42:00,33.0,31.0,-100.00,WSW,245,9.0,12.0,94,0.00,,,-99.99,,2013-03-25 14:42:00,
2013-03-25 10:52:00,33.0,31.0,-100.00,WSW,240,6.0,10.0,93,0.00,,,-99.99,,2013-03-25 14:52:00,
2013-03-25 11:03:00,33.0,31.0,-100.00,WSW,240,4.0,10.0,94,0.00,,,-99.99,,2013-03-25 15:03:00,
2013-03-25 11:13:00,33.0,31.0,-100.00,WSW,250,6.0,9.0,93,0.55,,,-99.99,,2013-03-25 15:13:00,
2013-03-25 11:23:00,33.0,31.0,-100.00,SW,235,7.0,12.0,93,0.55,,,-99.99,,2013-03-25 15:23:00,
2013-03-25 11:33:00,33.0,31.0,-100.00,WSW,250,6.0,11.0,93,0.55,,,-99.99,,2013-03-25 15:33:00,
2013-03-25 11:42:00,33.0,31.0,-100.00,SW,230,7.0,10.0,93,2.24,,,-99.99,,2013-03-25 15:42:00,
2013-03-25 11:53:00,33.0,31.0,-100.00,WSW,255,6.0,12.0,93,1.69,,,-99.99,,2013-03-25 15:53:00,
2013-03-25 12:03:00,33.0,31.0,-100.00,WSW,250,6.0,12.0,93,1.10,,,-99.99,,2013-03-25 16:03:00,
2013-03-25 12:12:00,33.0,32.0,-100.00,West,260,4.0,13.0,93,1.69,,,-99.99,,2013-03-25 16:12:00,
2013-03-25 12:23:00,33.0,31.0,-100.00,WSW,250,6.0,9.0,92,0.00,,,-99.99,,2013-03-25 16:23:00,
2013-03-25 12:33:00,34.0,32.0,-100.00,WSW,240,4.0,9.0,92,0.55,,,-99.99,,2013-03-25 16:33:00,
2013-03-25 12:43:00,34.0,32.0,-100.00,WSW,250,4.0,9.0,92,0.55,,,-99.99,,2013-03-25 16:43:00,
2013-03-25 13:03:00,34.0,32.0,-100.00,WSW,250,8.0,12.0,91,0.55,,,-99.99,,2013-03-25 17:03:00,
2013-03-25 13:12:00,34.0,32.0,-100.00,West,260,5.0,12.0,91,0.55,,,-99.99,,2013-03-25 17:12:00,
2013-03-25 13:23:00,34.0,32.0,-100.00,WSW,255,7.0,9.0,90,1.10,,,-99.99,,2013-03-25 17:23:00,
2013-03-25 13:33:00,34.0,31.0,-100.00,WSW,255,7.0,11.0,90,1.69,,,-99.99,,2013-03-25 17:33:00,
2013-03-25 13:42:00,34.0,32.0,-100.00,WSW,255,6.0,9.0,90,2.24,,,-99.99,,2013-03-25 17:42:00,
2013-03-25 13:52:00,34.0,32.0,-100.00,WSW,245,3.0,8.0,90,1.10,,,-99.99,,2013-03-25 17:52:00,
2013-03-25 14:03:00,35.0,32.0,-100.00,WSW,250,3.0,9.0,90,1.69,,,-99.99,,2013-03-25 18:03:00,
2013-03-25 14:12:00,35.0,32.0,-100.00,WSW,250,3.0,7.0,90,0.55,,,-99.99,,2013-03-25 18:12:00,
2013-03-25 14:23:00,34.0,32.0,-100.00,WSW,240,6.0,11.0,89,0.55,,,-99.99,,2013-03-25 18:23:00,
2013-03-25 14:33:00,34.0,31.0,-100.00,WNW,285,6.0,10.0,89,0.55,,,-99.99,,2013-03-25 18:33:00,
2013-03-25 14:42:00,34.0,31.0,-100.00,WNW,285,7.0,11.0,88,1.10,,,-99.99,,2013-03-25 18:42:00,
2013-03-25 14:52:00,34.0,31.0,-100.00,West,270,7.0,9.0,88,1.69,,,-99.99,,2013-03-25 18:52:00,
2013-03-25 15:03:00,34.0,31.0,-100.00,West,260,9.0,12.0,88,1.69,,,-99.99,,2013-03-25 19:03:00,
2013-03-25 15:13:00,35.0,32.0,-100.00,West,265,6.0,11.0,89,3.39,,,-99.99,,2013-03-25 19:13:00,
2013-03-25 15:23:00,35.0,32.0,-100.00,WSW,250,5.0,10.0,88,2.24,,,-99.99,,2013-03-25 19:23:00,
2013-03-25 15:33:00,35.0,32.0,-100.00,West,260,6.0,8.0,88,1.10,,,-99.99,,2013-03-25 19:33:00,
2013-03-25 15:42:00,35.0,32.0,-100.00,West,275,4.0,9.0,89,1.10,,,-99.99,,2013-03-25 19:42:00,
2013-03-25 15:52:00,35.0,32.0,-100.00,SW,225,4.0,9.0,88,1.10,,,-99.99,,2013-03-25 19:52:00,
2013-03-25 16:02:00,35.0,32.0,-100.00,West,270,5.0,9.0,89,0.00,,,-99.99,,2013-03-25 20:02:00,
2013-03-25 16:12:00,34.0,31.0,-100.00,West,280,6.0,11.0,88,0.55,,,-99.99,,2013-03-25 20:12:00,
2013-03-25 16:22:00,34.0,31.0,-100.00,West,270,6.0,9.0,89,0.55,,,-99.99,,2013-03-25 20:22:00,
2013-03-25 16:32:00,34.0,31.0,-100.00,WNW,285,6.0,9.0,89,0.55,,,-99.99,,2013-03-25 20:32:00,
2013-03-25 16:42:00,34.0,32.0,-100.00,WNW,285,4.0,12.0,89,1.69,,,-99.99,,2013-03-25 20:42:00,
2013-03-25 16:52:00,34.0,32.0,-100.00,West,270,4.0,7.0,90,2.83,,,-99.99,,2013-03-25 20:52:00,
2013-03-25 17:03:00,34.0,31.0,-100.00,West,265,3.0,6.0,90,1.69,,,-99.99,,2013-03-25 21:03:00,
2013-03-25 17:12:00,34.0,31.0,-100.00,West,265,5.0,7.0,90,2.83,,,-99.99,,2013-03-25 21:12:00,
2013-03-25 17:22:00,33.0,31.0,-100.00,West,275,4.0,7.0,91,0.55,,,-99.99,,2013-03-25 21:22:00,
2013-03-25 17:33:00,33.0,31.0,-100.00,West,260,5.0,8.0,91,0.55,,,-99.99,,2013-03-25 21:33:00,
2013-03-25 17:43:00,33.0,31.0,-100.00,West,270,4.0,7.0,92,0.55,,,-99.99,,2013-03-25 21:43:00,
2013-03-25 17:52:00,33.0,31.0,-100.00,West,260,4.0,7.0,92,0.55,,,-99.99,,2013-03-25 21:52:00,
2013-03-25 18:03:00,33.0,31.0,-100.00,West,260,6.0,9.0,92,1.10,,,-99.99,,2013-03-25 22:03:00,
2013-03-25 18:12:00,33.0,31.0,-100.00,West,270,5.0,7.0,92,0.55,,,-99.99,,2013-03-25 22:12:00,
2013-03-25 18:23:00,33.0,31.0,-100.00,WNW,290,2.0,8.0,92,0.55,,,-99.99,,2013-03-25 22:23:00,
2013-03-25 18:33:00,33.0,31.0,-100.00,NW,305,3.0,6.0,92,1.10,,,-99.99,,2013-03-25 22:33:00,
2013-03-25 18:42:00,33.0,31.0,-100.00,NW,320,3.0,7.0,92,0.55,,,-99.99,,2013-03-25 22:42:00,
2013-03-25 18:52:00,33.0,31.0,-100.00,NW,310,3.0,6.0,92,1.69,,,-99.99,,2013-03-25 22:52:00,
2013-03-25 19:03:00,33.0,31.0,-100.00,NW,320,4.0,4.0,93,0.55,,,-99.99,,2013-03-25 23:03:00,
2013-03-25 19:12:00,33.0,31.0,-100.00,NW,315,4.0,7.0,93,0.55,,,-99.99,,2013-03-25 23:12:00,
2013-03-25 19:23:00,33.0,31.0,-100.00,North,350,4.0,6.0,93,0.55,,,-99.99,,2013-03-25 23:23:00,
2013-03-25 19:32:00,33.0,31.0,-100.00,NNW,340,3.0,6.0,93,0.55,,,-99.99,,2013-03-25 23:32:00,
2013-03-25 19:43:00,33.0,31.0,-100.00,NNW,335,4.0,7.0,93,0.00,,,-99.99,,2013-03-25 23:43:00,
2013-03-25 19:52:00,33.0,31.0,-100.00,NNW,330,3.0,6.0,93,0.55,,,-99.99,,2013-03-25 23:52:00,
2013-03-25 20:02:00,33.0,31.0,-100.00,North,355,4.0,6.0,93,0.00,,,-99.99,,2013-03-26 00:02:00,
2013-03-25 20:12:00,33.0,31.0,-100.00,NNW,335,4.0,6.0,93,0.55,,,-99.99,,2013-03-26 00:12:00,
2013-03-25 20:22:00,33.0,31.0,-100.00,NNW,340,4.0,6.0,93,0.55,,,-99.99,,2013-03-26 00:22:00,
2013-03-25 20:32:00,33.0,31.0,-100.00,NNW,330,5.0,7.0,93,0.55,,,-99.99,,2013-03-26 00:32:00,
2013-03-25 20:42:00,33.0,31.0,-100.00,NNW,330,4.0,7.0,93,0.00,,,-99.99,,2013-03-26 00:42:00,
2013-03-25 21:02:00,32.0,31.0,-100.00,North,0,6.0,9.0,93,0.00,,,-99.99,,2013-03-26 01:02:00,
2013-03-25 21:12:00,32.0,31.0,-100.00,NNW,345,7.0,9.0,93,0.00,,,-99.99,,2013-03-26 01:12:00,
2013-03-25 21:22:00,32.0,31.0,-100.00,NNW,335,6.0,9.0,92,0.00,,,-99.99,,2013-03-26 01:22:00,
2013-03-25 21:32:00,32.0,30.0,-100.00,North,355,6.0,12.0,92,0.00,,,-99.99,,2013-03-26 01:32:00,
2013-03-25 21:42:00,32.0,30.0,-100.00,North,355,6.0,12.0,92,0.00,,,-99.99,,2013-03-26 01:42:00,
2013-03-25 21:52:00,32.0,30.0,-100.00,North,355,4.0,11.0,92,0.00,,,-99.99,,2013-03-26 01:52:00,
2013-03-25 22:02:00,32.0,30.0,-100.00,North,5,6.0,10.0,92,0.55,,,-99.99,,2013-03-26 02:02:00,
2013-03-25 22:12:00,32.0,30.0,-100.00,North,10,7.0,12.0,91,0.00,,,-99.99,,2013-03-26 02:12:00,
2013-03-25 22:22:00,32.0,30.0,-100.00,North,355,7.0,12.0,91,0.55,,,-99.99,,2013-03-26 02:22:00,
2013-03-25 22:32:00,32.0,30.0,-100.00,North,5,5.0,11.0,91,0.00,,,-99.99,,2013-03-26 02:32:00,
2013-03-25 22:42:00,32.0,30.0,-100.00,North,10,7.0,11.0,91,0.00,,,-99.99,,2013-03-26 02:42:00,
2013-03-25 22:52:00,32.0,30.0,-100.00,North,10,6.0,9.0,90,0.00,,,-99.99,,2013-03-26 02:52:00,
2013-03-25 23:02:00,32.0,29.0,-100.00,North,355,6.0,11.0,90,0.00,,,-99.99,,2013-03-26 03:02:00,
2013-03-25 23:12:00,32.0,29.0,-100.00,NNW,340,9.0,14.0,90,0.00,,,-99.99,,2013-03-26 03:12:00,
2013-03-25 23:22:00,32.0,29.0,-100.00,North,0,7.0,12.0,90,0.00,,,-99.99,,2013-03-26 03:22:00,
2013-03-25 23:34:00,32.0,29.0,-100.00,North,355,6.0,12.0,90,0.00,,,-99.99,,2013-03-26 03:34:00,
2013-03-25 23:42:00,32.0,29.0,-100.00,North,355,3.0,12.0,90,0.00,,,-99.99,,2013-03-26 03:42:00,
2013-03-25 23:52:00,32.0,29.0,-100.00,North,0,5.0,11.0,90,0.00,,,-99.99,,2013-03-26 03:52:00,